Lapse_Rate
7.1 7.7 5.9 5.7 6.0 6.4 6.5 6.9 7.0 7.2 7.2 7.3 6.9 6.8 6.7 6.1 6.1 6.2 6.2 6.0 6.2 6.2 6.2 6.3 6.3 6.2 6.3 6.3 6.1 6.1 6.1 6.1 6.3 6.1 5.7 5.3 4.9 5.2 5.4 5.5 5.5 5.4 5.5
6.1 5.9 6.9 5.3 6.7 6.4 6.5 6.6 6.9 6.9 7.0 7.1 7.1 7.0 6.7 6.3 6.1 6.2 6.3 6.3 6.3 6.4 6.3 6.3 6.3 6.1 6.2 6.1 6.1 6.0 6.0 6.0 5.9 6.0 6.1 5.5 5.3 5.1 5.1 5.0 5.2 5.4 5.4
5.4 5.8 5.6 5.3 4.5 4.8 5.8 5.6 5.9 6.5 6.6 6.3 6.1 6.1 6.3 6.4 6.2 6.7 6.5 6.2 6.2 6.4 6.3 6.3 6.3 6.3 6.3 6.0 6.0 5.8 5.8 5.8 5.7 5.5 5.8 6.0 5.7 5.6 5.6 5.7 5.7 5.6 5.7
5.5 5.7 6.0 6.3 6.7 6.2 6.5 7.0 6.4 5.3 5.9 6.0 5.6 5.5 5.3 5.4 5.9 5.8 6.5 6.8 6.2 6.3 6.5 6.3 6.4 6.5 6.4 6.3 6.1 5.9 5.6 5.6 5.8 5.7 5.5 5.6 5.6 5.5 5.6 5.5 5.5 5.7 5.5
6.0 5.9 7.0 7.6 7.8 7.5 6.5 6.3 5.6 5.6 5.7 5.1 5.8 5.3 5.1 4.8 5.5 5.9 6.1 6.6 6.3 6.2 6.2 6.5 6.6 6.3 6.5 6.5 6.4 5.9 5.8 5.4 5.6 5.7 5.6 5.5 5.4 5.3 5.2 5.4 5.6 5.5 5.2
6.8 6.8 7.5 7.5 7.5 7.1 6.7 6.4 6.6 6.1 5.8 5.6 5.5 4.5 4.6 4.4 5.0 5.6 5.6 5.9 6.1 6.4 6.3 6.2 6.6 6.4 6.4 6.5 6.4 6.3 6.0 5.9 5.8 5.7 5.8 5.7 5.5 5.4 5.3 5.2 5.2 5.2 5.4
7.8 7.8 7.6 7.2 7.1 6.6 6.3 6.2 6.2 5.4 5.4 5.7 5.5 5.1 4.7 4.9 5.0 5.1 5.3 5.5 5.6 6.4 6.3 6.0 6.1 6.4 6.4 6.4 6.3 6.2 6.3 5.6 5.7 5.8 5.9 5.6 5.5 5.4 5.5 5.6 5.5 5.4 5.4
7.2 7.1 7.0 6.9 6.8 6.5 6.4 6.6 6.7 6.4 5.9 5.7 5.6 5.3 5.3 5.2 5.3 5.1 5.2 5.4 5.7 5.8 6.0 6.2 6.0 6.1 6.1 6.4 6.5 6.5 6.5 6.0 5.5 5.8 6.1 5.5 5.6 5.5 5.5 5.8 6.0 5.9 5.8
6.7 6.5 6.4 6.4 6.4 6.3 6.0 6.2 6.6 6.4 6.4 6.2 5.8 5.5 5.4 5.2 5.3 5.3 5.2 5.0 5.0 5.4 5.8 6.0 6.0 5.8 6.0 6.3 6.4 6.3 6.4 6.3 5.9 5.6 5.6 5.6 5.7 5.5 5.5 5.8 5.9 5.6 5.8
6.4 6.4 6.4 6.3 6.3 6.3 6.3 6.2 6.5 6.4 6.2 6.1 5.8 5.6 5.3 5.5 5.1 5.2 5.0 5.3 5.4 5.1 5.2 5.4 5.5 5.8 5.9 5.7 5.7 5.9 6.1 6.4 5.9 6.0 6.1 5.6 5.5 5.9 6.0 5.8 5.7 5.8 5.7
6.2 6.4 6.4 6.4 6.2 6.0 5.9 6.0 6.1 6.2 5.7 5.5 5.3 5.2 5.2 5.3 5.3 5.4 5.3 5.2 5.0 5.1 5.4 5.7 5.7 5.5 5.6 5.6 5.6 5.7 6.2 6.1 6.0 5.9 6.2 6.3 6.2 6.1 6.3 6.1 5.9 5.7 5.7
6.2 6.0 5.9 5.9 6.0 6.0 5.8 5.6 5.7 5.6 5.6 5.5 5.4 5.3 5.4 5.5 5.3 5.3 5.1 5.1 5.1 5.3 5.2 5.5 5.1 5.5 5.5 5.7 5.6 5.6 5.7 6.3 6.3 5.8 6.1 6.3 6.2 6.3 6.0 5.9 5.6 5.5 5.6
6.4 6.1 6.1 6.0 5.9 5.9 6.2 5.9 5.6 5.5 5.7 5.5 5.6 5.3 5.4 5.6 5.6 5.5 5.6 5.4 5.4 5.4 5.2 5.3 5.4 5.2 5.3 5.5 5.7 5.7 5.7 6.0 6.1 6.1 5.7 6.2 6.4 6.0 5.7 5.6 5.6 5.4 5.4
6.0 5.9 5.9 5.9 6.1 6.0 6.1 6.0 5.7 5.6 5.9 6.0 5.9 5.8 5.6 5.3 5.7 5.7 5.9 5.6 5.4 5.4 5.4 5.2 5.2 5.4 5.5 5.6 5.6 5.7 5.8 5.8 5.7 5.9 5.8 5.8 6.2 5.9 5.6 5.6 5.4 5.3 5.0
5.8 5.7 5.6 5.6 5.7 6.0 5.9 5.8 5.7 5.7 5.7 5.8 5.9 5.9 5.7 5.5 5.8 5.9 6.0 5.9 5.8 5.8 6.1 5.7 5.4 5.6 5.8 5.7 5.8 6.0 5.9 5.7 5.5 5.8 5.9 5.7 5.7 6.1 6.0 5.6 5.2 5.0 4.9
5.7 5.6 5.5 5.6 5.6 5.7 5.7 5.8 5.8 5.7 5.7 5.6 5.6 5.7 5.8 5.9 6.0 6.1 6.0 5.9 5.9 6.3 6.3 6.0 6.1 6.1 6.3 6.4 6.3 6.4 6.0 5.9 5.8 5.5 5.6 5.9 6.4 6.2 6.0 5.6 5.3 4.8 4.9
5.7 5.7 5.9 5.8 5.8 5.8 5.7 5.5 5.5 5.5 5.5 5.4 5.4 5.4 5.4 5.5 5.8 5.9 5.7 5.6 5.5 5.5 5.8 6.1 6.2 6.3 6.3 6.1 6.5 6.3 6.2 6.2 6.1 6.1 6.1 6.0 6.0 6.0 5.6 5.7 5.7 5.2 5.2
5.7 5.8 5.8 5.9 5.9 5.7 5.7 5.7 5.7 5.5 5.3 5.2 5.0 5.1 5.1 5.2 5.1 5.1 5.4 5.4 5.3 5.4 5.6 5.9 6.2 6.4 6.5 6.3 6.2 6.3 6.1 5.9 5.7 5.4 5.2 5.2 5.2 5.3 5.4 5.6 5.5 5.3 5.2
6.0 5.9 5.8 5.8 5.6 5.5 5.4 5.3 5.4 5.5 5.4 5.3 5.1 4.9 4.9 4.9 5.0 5.2 5.3 5.5 5.5 5.5 5.6 5.8 6.0 6.2 6.3 6.4 6.3 6.3 6.2 6.0 5.7 5.4 5.1 4.8 4.7 4.9 5.1 5.4 5.4 5.3 5.2
6.1 6.0 5.9 5.8 5.7 5.8 5.8 5.7 5.7 5.5 5.3 5.2 5.7 5.9 5.5 5.4 5.3 5.3 5.3 5.3 5.4 5.6 5.6 5.7 5.9 6.1 6.3 6.2 6.2 6.2 6.1 5.8 5.4 5.2 5.0 5.0 5.0 4.9 5.0 5.2 5.5 5.6 5.4
6.0 6.0 5.9 5.9 5.9 5.8 6.0 6.0 6.0 5.9 5.8 5.7 5.8 5.8 5.9 5.8 5.7 5.6 5.7 5.8 5.9 6.0 6.0 6.0 5.8 5.9 6.0 6.2 6.3 6.1 5.9 5.7 5.4 5.1 4.9 4.8 4.8 4.9 5.0 4.8 4.9 5.2 5.2
5.9 5.8 5.7 5.8 5.6 5.7 5.6 5.5 5.6 5.7 5.5 5.6 5.7 5.7 5.7 5.8 5.9 5.9 5.8 5.8 5.8 6.0 6.1 6.2 5.9 5.7 5.9 5.7 5.3 5.7 6.1 6.1 5.7 5.2 5.3 5.1 5.0 5.1 5.0 5.0 5.0 4.8 4.9
5.9 5.9 5.9 5.7 5.6 5.4 5.5 5.4 5.3 5.1 5.0 4.9 5.0 5.3 5.6 5.6 5.5 5.7 5.9 6.1 6.4 6.6 6.6 6.5 5.9 5.7 5.4 5.3 5.1 5.1 5.4 5.5 5.4 5.4 5.7 5.5 5.2 5.0 5.1 5.3 5.2 5.2 5.0
5.8 5.8 5.8 5.7 5.5 5.2 4.9 4.8 4.9 4.9 4.9 4.9 4.8 4.8 5.1 5.4 5.5 5.8 6.1 6.3 6.4 6.4 6.4 6.3 6.2 6.1 6.0 6.0 5.8 5.6 5.5 5.4 5.3 5.6 5.9 5.6 5.6 5.5 5.5 5.4 5.3 5.3 5.0
5.6 5.8 5.9 5.8 5.6 5.4 5.5 5.2 5.2 5.0 5.0 5.0 4.7 4.8 5.0 5.2 5.3 5.5 6.0 6.4 6.4 6.4 6.4 6.3 6.1 5.6 5.7 6.0 5.9 6.0 5.8 5.7 5.8 5.4 5.2 5.4 5.5 5.5 5.7 5.6 5.6 5.6 5.2
5.4 5.5 5.6 5.8 5.7 5.6 5.8 5.8 5.4 5.3 5.4 5.6 5.5 5.2 5.2 5.2 5.2 5.5 6.0 6.3 6.3 6.4 6.5 6.5 6.5 5.9 5.8 6.0 5.8 6.1 6.3 6.0 6.0 5.8 5.1 5.2 5.2 5.2 4.9 4.9 5.0 4.8 4.9
Wind_Speed
4 12 7 4 7 7 6 3 6 7 8 8 10 10 10 10 10 9 9 8 8 6 5 6 6 5 4 3 3 3 4 4 5 1 2 3 2 3 3 3 4 6 10
3 8 15 6 12 7 6 2 1 5 4 9 8 8 8 10 10 11 10 8 9 7 6 6 7 4 5 5 4 5 4 4 3 4 2 2 3 2 1 2 1 3 5
5 17 15 7 11 9 7 1 4 5 6 3 3 7 7 8 10 10 10 8 8 8 8 8 8 6 6 4 5 4 4 3 3 3 3 1 2 1 1 1 1 1 4
18 19 18 16 10 10 9 8 5 9 7 7 6 4 5 5 8 8 9 8 8 8 7 7 8 7 8 7 7 7 5 5 4 4 4 3 2 1 1 2 1 1 2
13 6 8 10 13 7 7 7 6 8 7 6 5 6 3 7 5 6 8 9 9 8 6 7 7 10 13 10 6 7 7 5 5 5 4 2 2 2 3 2 2 2 3
2 3 4 6 10 9 9 7 4 4 4 4 6 5 7 3 5 10 10 8 9 9 8 7 7 10 11 13 13 11 11 7 6 4 3 4 5 5 3 5 3 3 2
6 4 3 5 5 5 7 9 10 10 7 6 7 6 6 5 7 10 13 6 8 8 8 8 8 7 10 8 12 13 11 14 11 7 5 7 5 7 5 5 5 4 4
7 7 6 2 2 4 5 5 6 6 8 9 8 8 10 9 10 9 8 6 4 6 7 7 8 9 8 9 7 6 8 8 10 7 9 8 7 6 7 6 7 4 1
6 5 3 2 4 4 4 5 5 4 6 6 5 9 11 8 12 10 7 3 6 8 6 6 8 10 12 14 8 8 7 6 6 11 9 8 8 10 9 5 3 3 3
6 5 4 4 5 4 5 6 3 2 4 4 4 5 6 6 8 8 8 4 5 4 6 7 12 11 10 13 9 8 8 8 6 5 5 6 8 7 13 9 7 7 4
5 5 6 6 5 5 3 2 2 1 2 2 2 2 3 1 4 5 7 3 4 5 8 5 6 11 14 11 13 8 10 7 7 6 6 5 4 6 7 8 10 8 5
5 7 6 6 4 5 6 4 3 4 5 3 2 4 5 7 9 7 3 5 5 4 4 3 3 10 11 10 8 12 11 3 4 4 4 6 6 7 7 8 11 9 7
7 7 6 5 6 5 6 5 4 5 3 4 4 4 3 3 4 7 8 4 5 2 3 6 10 8 7 8 13 10 9 5 5 5 7 7 8 8 6 5 6 6 4
7 7 7 6 6 6 3 2 4 3 3 3 3 3 2 3 2 2 3 1 1 2 3 4 6 8 9 9 7 8 6 5 6 6 7 7 2 3 7 8 7 7 6
4 4 5 4 4 5 4 4 1 1 2 1 1 2 2 2 1 2 4 4 3 3 5 3 3 3 5 5 6 6 4 4 6 6 6 7 7 7 8 7 8 7 8
6 5 4 4 3 3 4 5 3 2 1 3 1 2 2 7 7 3 2 2 3 5 1 3 5 4 7 7 7 7 5 6 7 7 7 7 7 7 7 7 9 10 11
4 5 4 4 4 3 2 3 3 4 1 1 2 3 2 6 6 6 6 7 4 2 2 3 4 5 6 6 7 7 8 6 7 7 7 8 8 8 8 8 9 10 11
5 7 4 4 4 4 4 2 3 3 3 3 2 3 5 2 3 2 2 3 1 3 2 3 5 6 7 7 7 7 7 7 6 7 7 8 8 9 9 9 10 11 12
5 4 4 4 3 2 0 1 1 2 3 3 1 2 5 7 7 4 4 1 2 3 4 5 5 5 6 7 8 7 8 8 7 7 7 8 9 9 10 10 11 14 14
3 5 4 3 4 4 4 3 3 2 1 1 2 2 2 2 1 1 2 2 3 3 4 5 5 5 6 7 7 7 8 8 8 8 9 9 9 10 11 10 11 11 12
3 4 4 4 4 3 4 3 3 2 3 3 2 1 3 2 2 2 3 3 3 3 4 5 5 6 5 5 6 7 7 7 7 7 7 8 8 8 8 9 10 11 10
2 2 3 4 4 4 4 3 4 4 4 4 3 2 5 3 3 3 4 4 3 4 4 4 5 5 5 4 5 5 6 6 7 7 7 8 9 9 9 9 10 9 11
3 3 4 4 4 5 5 4 4 4 5 5 4 4 4 4 4 4 4 4 4 4 4 3 4 4 4 4 3 4 6 6 6 6 6 7 7 8 8 10 10 9 10
3 4 5 5 5 5 5 5 5 6 6 5 5 5 5 5 5 5 4 4 4 4 4 4 4 5 4 4 4 4 3 5 6 6 6 4 4 4 4 1 5 10 10
2 4 5 5 5 5 6 5 6 5 6 5 6 5 5 5 5 5 5 4 5 5 5 4 4 5 6 6 6 7 9 7 6 9 5 6 6 8 6 6 7 9 8
4 5 5 4 5 5 5 6 6 5 6 7 7 6 6 5 5 5 5 5 5 6 5 4 5 7 6 3 5 7 8 7 5 8 6 5 5 5 5 6 10 7 10
Wind_Direction
183 110 217 115 97 45 40 8 227 189 200 202 202 200 197 194 191 189 191 185 196 201 194 203 208 189 198 198 202 191 208 189 242 295 266 268 261 227 257 190 183 194 192
118 99 82 141 114 54 340 57 351 306 217 200 186 193 206 194 188 190 191 188 190 198 202 195 219 195 203 198 186 223 211 199 190 226 256 260 264 293 247 141 126 174 191
151 134 137 215 121 128 229 110 246 238 224 279 229 191 197 202 190 191 182 185 188 195 200 207 218 192 200 194 184 206 220 203 203 213 244 248 254 170 69 74 133 153 217
148 145 164 189 162 188 198 174 147 227 236 202 199 248 234 196 202 190 183 180 193 202 200 204 216 201 211 203 189 202 192 214 196 213 235 240 222 207 158 160 175 198 199
140 148 201 181 153 159 184 170 182 240 234 235 193 215 246 209 196 191 188 188 197 203 203 208 213 217 212 206 193 192 182 201 210 218 231 191 203 184 206 171 191 184 239
35 43 65 143 145 161 176 166 164 220 234 230 239 234 226 242 217 203 199 198 198 202 210 219 220 219 226 211 212 196 180 189 208 184 185 202 208 210 180 193 173 164 237
52 47 51 63 94 144 184 188 204 218 225 237 235 237 263 240 237 222 213 203 205 204 206 212 221 222 213 215 218 224 213 202 193 189 201 210 205 200 167 177 187 196 211
41 38 24 30 182 182 177 191 208 221 227 230 237 224 232 233 192 194 200 210 224 221 213 212 226 233 208 206 216 211 222 212 214 202 203 217 209 182 186 189 198 199 114
46 55 40 133 187 177 197 203 209 199 216 236 241 221 215 209 185 144 134 177 240 232 216 206 217 230 220 204 201 212 224 238 204 210 217 211 212 185 167 131 158 164 219
3 6 36 61 71 92 186 208 204 198 238 232 237 240 184 146 157 173 194 180 217 244 245 237 223 227 236 223 202 219 233 230 196 187 214 233 209 195 182 188 166 197 182
355 13 26 23 32 29 76 127 154 98 98 64 42 56 101 41 118 227 178 228 221 220 238 221 219 211 229 231 220 212 223 200 200 210 215 208 192 204 193 207 189 194 187
24 28 16 23 22 44 28 18 80 116 105 79 64 49 64 82 39 37 1 265 317 262 258 263 249 226 233 235 202 231 254 199 184 194 214 218 208 201 209 199 205 204 208
34 22 16 11 26 31 36 9 63 74 91 88 82 92 95 58 82 71 74 62 24 322 323 309 302 300 256 248 229 231 211 197 189 189 232 230 212 212 211 185 192 196 178
39 18 13 13 357 7 24 342 45 58 67 75 80 87 95 114 62 23 7 6 338 296 304 302 293 270 261 266 260 227 221 193 207 209 227 240 186 181 203 210 199 196 204
37 15 7 3 6 10 349 289 211 191 146 132 128 118 109 50 6 44 18 357 359 344 333 317 320 315 294 270 261 248 222 205 223 228 218 218 216 214 215 206 217 205 206
25 8 352 355 12 27 346 341 27 296 112 86 151 151 142 120 112 119 194 267 306 326 320 294 301 285 290 283 270 262 240 222 223 226 224 221 223 216 217 215 216 213 211
16 357 354 358 5 13 359 13 359 360 90 198 186 212 188 115 82 55 21 355 353 136 312 296 281 287 276 267 273 265 254 232 223 216 219 224 219 219 209 213 216 221 215
7 4 6 360 11 360 354 303 240 220 242 271 247 253 255 167 138 129 227 245 204 212 243 271 274 276 280 276 267 260 265 261 233 227 224 224 225 226 222 217 215 225 222
11 354 356 10 2 293 359 352 315 259 248 250 151 222 216 207 218 215 228 216 256 284 288 290 288 285 276 272 270 264 256 256 243 247 240 239 236 231 225 223 219 214 218
1 342 353 5 357 352 348 11 37 49 339 266 252 227 182 143 115 295 267 271 283 290 299 295 290 289 293 294 286 263 258 253 245 238 239 239 236 232 233 225 222 219 216
343 336 330 351 8 329 327 329 329 330 306 290 272 239 203 190 222 258 274 267 267 269 279 288 301 312 308 308 307 303 295 280 262 256 251 248 241 236 235 237 228 220 206
304 327 337 323 314 316 286 255 262 278 282 277 260 235 213 236 229 247 256 262 269 269 269 286 296 308 308 327 325 322 315 311 295 265 252 249 248 239 236 234 226 222 213
288 319 324 317 303 294 307 271 247 243 260 253 246 247 223 238 233 231 247 245 253 263 271 276 294 307 316 322 331 339 341 339 331 321 285 271 252 239 238 239 224 216 208
296 312 311 297 303 303 282 285 247 227 240 249 247 237 231 231 229 232 236 262 270 262 251 251 265 283 299 317 323 332 359 355 339 342 3 13 5 19 44 357 241 216 201
318 316 303 294 288 283 282 276 261 242 231 231 240 237 233 231 232 227 231 235 252 262 267 261 255 272 285 308 327 341 340 356 17 343 351 20 38 12 40 58 59 54 74
309 297 286 286 283 275 271 278 257 240 236 234 231 237 236 232 226 226 228 240 247 252 260 272 271 267 279 305 328 326 326 331 1 12 359 7 15 29 21 47 73 69 72